Regional Weather Roundup
Issued by NWS

Home | Current Version | Previous Version | Text Only | Print | Product List | Glossary On
Versions: 1 2 3 4 5 6 7 8 9 10 11 12 13 14 15 16 17 18 19 20 21 22 23 24 25 26 27 28 29 30 31 32 33 34 35 36 37 38 39 40 41 42 43 44 45 46 47 48 49 50
000
ASUS45 KBOI 310410
RWRID

IDAHO REGIONAL WEATHER ROUNDUP
NATIONAL WEATHER SERVICE BOISE ID
1000 PM MDT SUN AUG 30 2015

NOTE: "FAIR" INDICATES FEW OR NO CLOUDS BELOW 12000 FEET
WITH NO SIGNIFICANT WEATHER AND/OR OBSTRUCTIONS TO VISIBILITY

IDZ012-014-310500-
SOUTHWEST IDAHO


CITY           SKY/WX    TMP DP  RH WIND       PRES   REMARKS
BOISE          CLEAR     69  41  36 NW9       29.97R
CALDWELL       CLEAR     64  39  39 W7        30.01R
MOUNTAIN HOME  CLEAR     71  35  27 N9        29.96R
$$

IDZ016-017-310500-
SOUTHCENTRAL IDAHO


CITY           SKY/WX    TMP DP  RH WIND       PRES   REMARKS
BURLEY         CLEAR     56  43  61 SE5       30.01R
JEROME         CLEAR     62  32  32 CALM      30.01R
TWIN FALLS     CLEAR     66  28  24 SW8       30.02R
$$

IDZ019>023-310500-
SOUTHEAST IDAHO


CITY           SKY/WX    TMP DP  RH WIND       PRES   REMARKS
IDAHO FALLS    CLEAR     63  31  30 SW10      30.01R
POCATELLO      CLEAR     58  33  39 S12       30.02R
REXBURG        CLEAR     65  29  25 S14       30.00R
$$

IDZ006-010-011-018-031-032-310500-
CENTRAL IDAHO MOUNTAINS


CITY           SKY/WX    TMP DP  RH WIND       PRES   REMARKS
MCCALL         PTCLDY    54  38  54 W3        30.09R
HAILEY         CLEAR     63  28  27 NW6       30.08R
STANLEY          N/A     49  29  46 SW3       30.15R
SALMON         PTCLDY    63  36  36 N5        29.99R
CHALLIS        PTCLDY    63  27  25 W9        30.06R
$$

IDZ002-004-006-007-026-310500-
NORTHERN IDAHO


CITY           SKY/WX    TMP DP  RH WIND       PRES   REMARKS
LEWISTON       MOCLDY    66  43  43 CALM      30.00R
LOWELL           N/A     57  55  93 CALM      30.08R
COEUR D`ALENE  PTCLDY    59  46  63 S13       29.96R
MULLAN PASS    CLOUDY    41  40  96 VRB7      30.06R
$$



USA.gov is the U.S. government's official web portal to all federal, state and local government web resources and services.